Regional Weather Roundup
Issued by NWS

Home | Current Version | Previous Version | Graphics & Text | Print | Product List | Glossary On
Versions: 1 2 3 4 5 6 7 8 9 10 11 12 13 14 15 16 17 18 19 20 21 22 23 24 25 26 27 28 29 30 31 32 33 34 35 36 37 38 39 40 41 42 43 44 45 46 47 48 49 50
000
ASUS45 KPSR 231810
RWRAZ

ARIZONA REGIONAL HOURLY WEATHER ROUNDUP
NATIONAL WEATHER SERVICE PHOENIX AZ
1100 AM MST WED JUL 23 2014

NOTE: FAIR INDICATES FEW OR NO CLOUDS BELOW 12,000 FEET WITH NO
SIGNIFICANT WEATHER AND/OR OBSTRUCTIONS TO VISIBILITY.

AZZ001>003-036-231900-
NORTHWEST ARIZONA

CITY           SKY/WX    TMP DP  RH WIND       PRES   REMARKS
BULLHEAD CITY  SUNNY    104  34   9 SW8       29.89F
KINGMAN        SUNNY     97  32  10 W9        30.11F
6HR MIN TEMP:  71; 6HR MAX TEMP:  98;

$$

AZZ004>008-015-016-018-231900-
NORTH CENTRAL ARIZONA

CITY           SKY/WX    TMP DP  RH WIND       PRES   REMARKS
GRAND CANYON   CLOUDY    88  38  17 VRB5G16   30.38F
6HR MIN TEMP:  54; 6HR MAX TEMP:  89;

WILLIAMS       MOSUNNY   82  39  21 W6        30.46S
PRESCOTT       SUNNY     92  39  15 VRB3      30.26F
6HR MIN TEMP:  68; 6HR MAX TEMP:  92;

FLAGSTAFF      MOSUNNY   83  39  21 MISG      30.42F
6HR MIN TEMP:  53; 6HR MAX TEMP:  84;

PAYSON         SUNNY     88  50  27 CALM      30.29F
PAGE           SUNNY     96  41  15 CALM      30.19S
6HR MIN TEMP:  79; 6HR MAX TEMP:  97;

$$

AZZ009>014-017-231900-
NORTHEAST ARIZONA

CITY           SKY/WX    TMP DP  RH WIND       PRES   REMARKS
WINSLOW        SUNNY     93  48  21 SE10      30.25F
6HR MIN TEMP:  73; 6HR MAX TEMP:  94;

SAINT JOHNS    MOSUNNY   88  49  25 E12G18    30.32F
6HR MIN TEMP:  65; 6HR MAX TEMP:  90;

WINDOW ROCK    SUNNY     87  43  21 MISG      30.43F
6HR MIN TEMP:  56; 6HR MAX TEMP:  87;

SHOW LOW       CLOUDY    81  45  28 CALM      30.41S
$$

AZZ023-231900-
GREATER PHOENIX AREA

CITY           SKY/WX    TMP DP  RH WIND       PRES   REMARKS
PHOENIX        PTSUNNY  108  56  18 S13       29.90F HX 107
6HR MIN TEMP:  95; 6HR MAX TEMP: 108;

BUCKEYE          N/A    104  55  20 E13       29.91S HX 103
GLENDALE       PTSUNNY  108  57  19 E8        29.92F HX 107
LUKE AFB       NOT AVBL
6HR MIN TEMP:  86; 6HR MAX TEMP: 105;

DEER VALLEY    SUNNY    103  53  19 S9        29.93F HX 101
6HR MIN TEMP:  92; 6HR MAX TEMP: 105;

SCOTTSDALE     SUNNY    103  56  21 VRB6      29.95F HX 102
6HR MIN TEMP:  92; 6HR MAX TEMP: 103;

MESA-GATEWAY   PTSUNNY  104  54  18 S12G17    29.96S HX 102
CHANDLER       PTSUNNY  102  63  27 E9        29.93F HX 104
$$

AZZ027-028-231900-
SOUTHWEST MARICOPA COUNTY AND PINAL COUNTY

CITY           SKY/WX    TMP DP  RH WIND       PRES   REMARKS
CASA GRANDE    PTSUNNY  102  57  22 CALM      29.96S HX 101
6HR MIN TEMP:  88; 6HR MAX TEMP: 102;

GILA BEND      PTCLDY   109  43  10 NW2       29.90F HX 104
$$

AZZ503-504-507>509-231900-
SOUTHEAST ARIZONA

CITY           SKY/WX    TMP DP  RH WIND       PRES   REMARKS
TUCSON         SUNNY     99  54  22 SE15      30.07S
6HR MIN TEMP:  86; 6HR MAX TEMP:  99;

DAVIS-MONTHAN  MOSUNNY   98  55  23 SE17G23   30.05F
6HR MIN TEMP:  84; 6HR MAX TEMP:  98;

RYAN FIELD       N/A    100  54  20 SE10      30.04F
NOGALES        SUNNY     93  55  27 VRB3      30.16S
6HR MIN TEMP:  73; 6HR MAX TEMP:  96;

SIERRA VISTA   PTSUNNY   88  54  31 SE9G17    30.26S
DOUGLAS        MOSUNNY   90  57  32 E16       30.22S
6HR MIN TEMP:  67; 6HR MAX TEMP:  90;

SAFFORD        MOSUNNY   92  55  28 S8        30.14F
6HR MIN TEMP:  78; 6HR MAX TEMP:  93;

$$

AZZ020-021-025-026-031-231900-
SOUTHWEST ARIZONA

CITY           SKY/WX    TMP DP  RH WIND       PRES   REMARKS
YUMA           NOT AVBL
$$

CAZ031-033-041-043-047-048-061-231900-
SOUTHERN CALIFORNIA

CITY           SKY/WX    TMP DP  RH WIND       PRES   REMARKS
DOWNTOWN L.A.  SUNNY     85  57  38 VRB3      29.98F
6HR MIN TEMP:  65; 6HR MAX TEMP:  85;

L.A. AIRPORT   SUNNY     77  60  55 W12       30.00F
6HR MIN TEMP:  65; 6HR MAX TEMP:  77;

SAN DIEGO      MOSUNNY   77  60  55 NW9       30.01S
6HR MIN TEMP:  67; 6HR MAX TEMP:  78;

BURBANK        SUNNY     86  50  28 CALM      30.00F
6HR MIN TEMP:  67; 6HR MAX TEMP:  86;

ONTARIO        MOSUNNY   87  49  26 CALM      30.00F
6HR MIN TEMP:  67; 6HR MAX TEMP:  87;

RIVERSIDE      SUNNY     86  50  28 VRB3      30.00F
6HR MIN TEMP:  64; 6HR MAX TEMP:  87;

PALM SPRINGS   SUNNY    106  27   6 SW3       29.88F
6HR MIN TEMP:  78; 6HR MAX TEMP: 106;

EL CENTRO NAS  MOSUNNY  107  32   7 NW5       29.82F HX 100
6HR MIN TEMP:  78; 6HR MAX TEMP: 107;

IMPERIAL       SUNNY    106  36   9 N10       29.82F
6HR MIN TEMP:  80; 6HR MAX TEMP: 106;

BLYTHE         SUNNY    105  33   8 S5        29.87S
6HR MIN TEMP:  86; 6HR MAX TEMP: 105;

NEEDLES        SUNNY    106  31   7 E8        29.90F
6HR MIN TEMP:  86; 6HR MAX TEMP: 106;

$$

NVZ020-UTZ003-231900-
SOUTHERN NEVADA-UTAH

CITY           SKY/WX    TMP DP  RH WIND       PRES   REMARKS
LAS VEGAS      MOSUNNY  102  29   7 SE10      29.95F
6HR MIN TEMP:  83; 6HR MAX TEMP: 102;

SALT LAKE CITY MOSUNNY   98  32  10 SE20G28   30.10F
6HR MIN TEMP:  73; 6HR MAX TEMP:  98;

$$

NMZ009-TXZ055-231900-
NEW MEXICO-WEST TEXAS

CITY           SKY/WX    TMP DP  RH WIND       PRES   REMARKS
ALBUQUERQUE    PTSUNNY   86  55  34 CALM      30.37F
6HR MIN TEMP:  69; 6HR MAX TEMP:  86;

EL PASO        MOSUNNY   90  57  32 E16G24    30.24S
6HR MIN TEMP:  70; 6HR MAX TEMP:  90;

$$


........................KEY........................
SKY/WX - SKY CONDITION/WEATHER
TMP    - TEMPERATURE IN FAHRENHEIT
DP     - DEW POINT IN FAHRENHEIT
RH     - RELATIVE HUMIDITY IN PERCENT
WIND   - DIRECTION AND SPEED IN MILES PER HOUR (MPH)
VRB    - VARIABLE WIND DIRECTION
PRES   - MEAN SEA LEVEL PRESSURE IN INCHES OF MERCURY
         F - FALLING PRESSURE   R - RISING PRESSURE
         S - STEADY PRESSURE
VSB    - VISIBILITY IN MILES
HX     - HEAT INDEX IN FAHRENHEIT
WCI    - WIND CHILL INDEX IN FAHRENHEIT
TC     - TEMPERATURE IN CELSIUS WHICH IS ALSO KNOWN AS
         TEMPERATURE IN CENTIGRADE
AFB    - AIR FORCE BASE
         LUKE AFB IS LUKE AIR FORCE BASE
         DAVIS-MONTHAN IS DAVIS-MONTHAN AIR FORCE BASE
NAS    - NAVAL AIR STATION
         EL CENTRO NAS IS EL CENTRO NAVAL AIR STATION
N/A    - NOT AVAILABLE



USA.gov is the U.S. government's official web portal to all federal, state and local government web resources and services.